�������C�����ː����j�^�v���󋵏��
Date,Time,Cs137(Bq/L),Cs134(Bq/L),�S��(Bq/L)
2020/03/02,00:00,0.18,ND,25
2020/03/02,00:10,0.18,ND,26
2020/03/02,00:20,0.17,ND,25
2020/03/02,00:30,0.17,ND,23
2020/03/02,00:40,0.18,ND,25
2020/03/02,00:50,0.18,ND,28
2020/03/02,01:00,0.18,ND,30
2020/03/02,01:10,0.19,ND,29
2020/03/02,01:20,0.20,ND,28
2020/03/02,01:30,0.21,ND,27
2020/03/02,01:40,0.19,ND,26
2020/03/02,01:50,0.19,ND,26
2020/03/02,02:00,0.18,ND,24
2020/03/02,02:10,0.17,ND,26
2020/03/02,02:20,0.17,ND,26
2020/03/02,02:30,0.19,ND,25
2020/03/02,02:40,0.19,ND,26
2020/03/02,02:50,0.20,ND,26
2020/03/02,03:00,0.21,ND,25
2020/03/02,03:10,0.21,ND,25
2020/03/02,03:20,0.18,ND,26
2020/03/02,03:30,0.19,ND,26
2020/03/02,03:40,0.19,ND,24
2020/03/02,03:50,0.20,ND,23
2020/03/02,04:00,0.19,ND,22
2020/03/02,04:10,0.17,ND,23
2020/03/02,04:20,0.16,ND,24
2020/03/02,04:30,0.17,ND,25
2020/03/02,04:40,0.15,ND,26
2020/03/02,04:50,0.11,ND,27
2020/03/02,05:00,0.10,ND,29
2020/03/02,05:10,0.15,ND,26
2020/03/02,05:20,0.13,ND,27
2020/03/02,05:30,0.14,ND,24
2020/03/02,05:40,0.15,ND,23
2020/03/02,05:50,0.14,ND,19
2020/03/02,06:00,0.14,ND,15
2020/03/02,06:10,0.087,ND,17
2020/03/02,06:20,0.13,ND,17
2020/03/02,06:30,0.10,ND,18
2020/03/02,06:40,0.084,ND,17
2020/03/02,06:50,0.078,ND,22
2020/03/02,07:00,0.090,ND,23
2020/03/02,07:10,0.095,ND,25
2020/03/02,07:20,0.11,ND,24
2020/03/02,07:30,0.10,ND,25
2020/03/02,07:40,0.10,ND,25
2020/03/02,07:50,0.11,ND,22
2020/03/02,08:00,0.094,ND,24
2020/03/02,08:10,0.098,ND,22
2020/03/02,08:20,0.096,ND,22
2020/03/02,08:30,0.12,ND,19
2020/03/02,08:40,0.13,ND,20
2020/03/02,08:50,0.13,ND,22
2020/03/02,09:00,0.14,ND,22
2020/03/02,09:10,0.12,ND,25
2020/03/02,09:20,0.12,ND,25
2020/03/02,09:30,0.11,ND,30
2020/03/02,09:40,0.11,ND,31
2020/03/02,09:50,0.12,ND,27
2020/03/02,10:00,0.11,ND,26
2020/03/02,10:10,0.12,ND,26
2020/03/02,10:20,0.12,ND,25
2020/03/02,10:30,0.10,ND,22
2020/03/02,10:40,0.11,ND,22
2020/03/02,10:50,0.11,ND,25
2020/03/02,11:00,0.11,ND,27
2020/03/02,11:10,0.12,ND,26
2020/03/02,11:20,0.12,ND,28
2020/03/02,11:30,0.12,ND,29
2020/03/02,11:40,0.10,ND,27
2020/03/02,11:50,0.11,ND,24
2020/03/02,12:00,0.13,ND,20
2020/03/02,12:10,0.12,ND,19
2020/03/02,12:20,0.12,ND,16
2020/03/02,12:30,0.11,ND,13
2020/03/02,12:40,0.084,ND,16
2020/03/02,12:50,0.075,ND,18
2020/03/02,13:00,ND,ND,20
2020/03/02,13:10,ND,ND,20
2020/03/02,13:20,ND,ND,22
2020/03/02,13:30,0.050,ND,26
2020/03/02,13:40,0.064,ND,21
2020/03/02,13:50,0.081,ND,22
2020/03/02,14:00,0.068,ND,19
2020/03/02,14:10,0.092,ND,20
2020/03/02,14:20,0.10,ND,24
2020/03/02,14:30,0.097,ND,22
2020/03/02,14:40,0.098,ND,25
2020/03/02,14:50,0.071,ND,24
2020/03/02,15:00,0.093,ND,27
2020/03/02,15:10,0.087,ND,29
2020/03/02,15:20,0.075,ND,27
2020/03/02,15:30,0.079,ND,27
2020/03/02,15:40,0.072,ND,26
2020/03/02,15:50,0.073,ND,28
2020/03/02,16:00,0.063,ND,27
2020/03/02,16:10,0.065,ND,27
2020/03/02,16:20,0.072,ND,24
2020/03/02,16:30,0.099,ND,24
2020/03/02,16:40,-,-,-
2020/03/02,16:50,0.12,ND,20
2020/03/02,17:00,0.10,ND,20
2020/03/02,17:10,0.057,ND,17
2020/03/02,17:20,ND,ND,18
2020/03/02,17:30,0.053,ND,20
2020/03/02,17:40,0.056,ND,21
2020/03/02,17:50,0.061,ND,24
2020/03/02,18:00,0.059,ND,24
2020/03/02,18:10,0.11,ND,26
2020/03/02,18:20,0.12,ND,26
2020/03/02,18:30,0.14,ND,24
2020/03/02,18:40,0.12,ND,23
2020/03/02,18:50,0.12,ND,18
2020/03/02,19:00,0.12,ND,18
2020/03/02,19:10,0.098,ND,19
2020/03/02,19:20,0.11,ND,19
2020/03/02,19:30,0.067,ND,21
2020/03/02,19:40,0.076,ND,22
2020/03/02,19:50,0.067,ND,26
2020/03/02,20:00,0.064,ND,28
2020/03/02,20:10,0.080,ND,30
2020/03/02,20:20,0.067,ND,28
2020/03/02,20:30,0.076,ND,25
2020/03/02,20:40,0.060,ND,25
2020/03/02,20:50,0.059,ND,24
2020/03/02,21:00,0.074,ND,24
2020/03/02,21:10,0.084,ND,21
2020/03/02,21:20,0.099,ND,22
2020/03/02,21:30,0.091,ND,25
2020/03/02,21:40,0.099,ND,23
2020/03/02,21:50,0.087,ND,22
2020/03/02,22:00,0.070,ND,20
2020/03/02,22:10,0.062,ND,22
2020/03/02,22:20,0.054,ND,24
2020/03/02,22:30,0.050,ND,22
2020/03/02,22:40,ND,ND,24
2020/03/02,22:50,0.054,ND,26
2020/03/02,23:00,0.058,ND,24
2020/03/02,23:10,0.073,ND,23
2020/03/02,23:20,0.073,ND,22
2020/03/02,23:30,0.082,ND,23
2020/03/02,23:40,0.081,ND,22
2020/03/02,23:50,0.091,ND,20
